Terminal Aerodrome Forecast
Issued by NWS

Home | Current Version | Previous Version | Text Only | Print | Product List | Glossary On
Versions: 1 2 3 4 5 6 7 8 9 10 11 12 13 14 15 16 17 18 19 20 21 22 23 24 25
009
FTUS43 KFGF 082338
TAFDVL
TAF
KDVL 082338Z 0900/0924 30012KT P6SM BKN025
     FM090300 32007KT P6SM BKN045
     FM091200 32006KT P6SM BKN025
     FM091900 29006KT P6SM SCT030=

USA.gov is the U.S. government's official web portal to all federal, state and local government web resources and services.